sat.trackr.live / text

‹ back to catalog

STARLINK-37234

NORAD 68535 · 2026-068AD

PAYLOAD ACTIVE UNKNOWN

§ Identity

Operator
Country
US
Launch date
2026-03-30
Launch site
AFETR
Launch vehicle
Mass (kg)
RCS (m²)

Purposes: comms

External: N2YO · Heavens-Above · Gunter

§ Orbital elements

Epoch: 2026-09-19T19:56:14.106048Z

Period
93.85 min
Inclination
53.1601°
Eccentricity
0.0000686
Mean motion
15.34410262 rev/d
Perigee alt
462.2 km
Apogee alt
463.1 km
Semi-major
6,840.8 km
B*
3.8324e-4
RAAN
297.1969°
Arg perigee
32.9523°
Mean anomaly
327.1522°
Rev number
2,681

§ Raw data

STARLINK-372341 68535U 26068AD  26262.83071882  .00012598  00000+0  38324-3 0  99912 68535  53.1601 297.1969 0000686  32.9523 327.1522 15.34410262 26819

JSON: /api/v1/satellites/68535 · /tle

For live sub-satellite position, see the globe view (requires WebGL).

§ Visibility from observer

Set your observer location to see the next 7 days of passes ≥ 10°. The values pass through the URL so the page stays shareable.

No JS? Fill the form by hand. The geolocation button needs JavaScript.